{"data":{"norad_id":59862,"epoch":"2026-05-24T21:39:52.183584Z","epoch_age_seconds":93848,"freshness":"FRESH","line1":"1 59862U 24098E   26144.90268731  .00000714  00000+0  35468-4 0  9997","line2":"2 59862  43.0034 207.4472 0001654 274.2223  85.8440 15.27576656113509","mean_motion":15.27576656,"eccentricity":0.0001654,"inclination_deg":43.0034,"raan_deg":207.4472,"arg_perigee_deg":274.2223,"mean_anomaly_deg":85.844,"bstar":3.5468e-5,"rev_number":11350,"period_min":94.266955071877,"perigee_km":481.92426736046,"apogee_km":484.19395103338,"semimajor_km":6861.1961091969,"source":"CELESTRAK","updated_at":"2026-05-25T13:38:19.091062Z"}}